Lid_Strength_Index
1 1 1 1 1 1 1 1 0 5 8 9 6 6 5 6 5 4 5 5 5 7 8 8 7 7 9 8
1 1 1 1 1 1 0 -0 0 7 10 5 6 6 6 6 5 5 4 5 5 7 10 9 10 12 13 13
2 1 1 1 1 -0 -0 -0 6 8 10 4 7 7 7 8 7 6 5 4 7 10 11 13 14 15 17 16
2 2 2 1 1 3 5 5 6 10 8 9 7 7 7 7 7 7 8 9 11 14 13 15 19 17 17 16
2 2 4 6 9 9 9 10 10 10 9 7 7 8 8 8 8 10 12 12 14 16 15 15 15 15 16 16
3 3 6 8 9 9 11 8 8 8 7 8 10 9 8 10 11 14 12 14 16 13 12 13 14 15 16 16
3 6 7 7 6 7 11 9 8 9 8 8 11 10 10 10 12 14 14 16 14 11 12 14 15 16 17 17
7 8 9 7 6 7 14 11 9 8 9 8 12 8 10 10 12 14 13 14 12 12 14 15 15 18 14 15
9 10 8 6 7 8 18 10 9 7 9 11 11 10 9 10 14 13 14 15 14 15 15 15 14 16 14 15
9 9 7 6 8 12 17 11 10 11 12 12 12 10 12 11 12 13 13 14 12 13 15 13 14 13 16 17
11 8 7 8 13 16 11 12 12 11 13 14 13 13 14 16 18 19 19 16 14 13 13 16 14 16 20 22
8 8 8 11 16 13 14 11 12 12 15 14 14 14 15 17 16 17 19 20 20 16 13 16 17 17 19 23
8 8 11 16 16 14 12 13 13 15 16 15 15 15 17 17 16 16 20 21 20 15 13 14 15 18 20 18
8 10 13 15 15 12 12 12 16 16 18 17 17 17 17 15 15 14 16 18 22 17 15 14 15 17 16 21
9 11 16 16 13 11 11 14 15 16 17 18 17 18 17 15 14 15 16 18 20 19 17 18 20 19 20 20
13 15 16 13 11 13 12 13 14 15 16 17 17 17 17 16 14 15 19 18 21 23 21 17 16 17 19 20
16 17 15 14 13 13 14 14 15 14 15 17 18 16 16 14 14 15 18 17 22 26 24 21 18 20 18 19